sat.trackr.live / text

‹ back to catalog

STARLINK-11360 [DTC]

NORAD 61586 · 2024-187N

PAYLOAD ACTIVE UNKNOWN

§ Identity

Operator
Country
US
Launch date
2024-10-18
Launch site
AFETR
Launch vehicle
Mass (kg)
RCS (m²)

Purposes: comms

External: N2YO · Heavens-Above · Gunter

§ Orbital elements

Epoch: 2026-05-24T16:12:27.516672Z

Period
91.74 min
Inclination
53.1603°
Eccentricity
0.0001006
Mean motion
15.69705062 rev/d
Perigee alt
359.1 km
Apogee alt
360.4 km
Semi-major
6,737.9 km
B*
1.0673e-5
RAAN
281.7447°
Arg perigee
57.1178°
Mean anomaly
302.9937°
Rev number
9,273

§ Raw data

STARLINK-11360 [DTC]1 61586U 24187N   26144.67531848  .00000704  00000+0  10673-4 0  99982 61586  53.1603 281.7447 0001006  57.1178 302.9937 15.69705062 92730

JSON: /api/v1/satellites/61586 · /tle

For live sub-satellite position, see the globe view (requires WebGL).

§ Visibility from observer

Set your observer location to see the next 7 days of passes ≥ 10°. The values pass through the URL so the page stays shareable.

No JS? Fill the form by hand. The geolocation button needs JavaScript.